sat.trackr.live / text

‹ back to catalog

LEMUR-2-DEMBITZ

NORAD 42842 · 2017-042T

PAYLOAD ACTIVE UNKNOWN

§ Identity

Operator
Country
US
Launch date
2017-07-14
Launch site
TYMSC
Launch vehicle
Mass (kg)
RCS (m²)

Purposes: earth_obs

External: N2YO · Heavens-Above · Gunter

§ Orbital elements

Epoch: 2026-09-19T23:05:27.638880Z

Period
93.94 min
Inclination
97.3850°
Eccentricity
0.0007032
Mean motion
15.32972267 rev/d
Perigee alt
462.1 km
Apogee alt
471.8 km
Semi-major
6,845.1 km
B*
3.7018e-4
RAAN
84.2020°
Arg perigee
47.4728°
Mean anomaly
312.7107°
Rev number
50,285

§ Raw data

LEMUR-2-DEMBITZ1 42842U 17042T   26262.96212545  .00011725  00000+0  37018-3 0  99932 42842  97.3850  84.2020 0007032  47.4728 312.7107 15.32972267502859

JSON: /api/v1/satellites/42842 · /tle

For live sub-satellite position, see the globe view (requires WebGL).

§ Visibility from observer

Set your observer location to see the next 7 days of passes ≥ 10°. The values pass through the URL so the page stays shareable.

No JS? Fill the form by hand. The geolocation button needs JavaScript.